Temp
63 63 63 63 63 63 63 62 62 63 63 63 63 63 63 62 62 64 69 84 80 82 83 87 86 84 82 76 79 77 65 61 65 68 76 83 79 85 86 80 82 82 77 79 78
62 62 62 62 62 62 63 62 63 62 62 62 62 63 63 63 59 63 78 82 81 84 85 83 82 83 77 76 76 70 61 66 75 79 80 81 81 81 78 78 76 76 79 78 77
62 62 62 62 62 62 62 62 62 62 62 62 62 63 63 61 63 77 84 81 82 85 84 83 82 78 75 76 76 73 65 77 80 82 84 81 82 85 77 72 75 72 73 75 75
61 61 61 61 62 62 62 62 62 61 61 62 62 63 63 58 63 82 84 82 82 86 84 81 79 76 74 74 80 75 80 82 84 87 84 81 84 79 79 79 83 79 78 76 75
61 61 61 61 61 61 61 61 61 61 61 62 63 63 59 60 69 84 83 82 81 84 82 80 75 75 73 78 81 76 80 85 85 86 84 85 80 78 77 82 83 82 79 76 75
61 60 60 60 61 61 61 60 60 60 61 62 63 64 55 58 81 84 80 79 79 81 79 80 81 81 76 79 77 83 83 84 83 83 84 79 77 78 77 82 80 79 77 77 77
61 60 60 60 60 61 60 59 59 60 61 62 64 64 57 68 81 79 78 77 78 79 77 82 84 77 78 77 84 84 79 80 79 81 80 81 73 73 77 80 77 77 78 78 78
61 61 60 60 60 60 59 58 59 61 62 64 65 57 59 77 76 79 75 80 81 80 82 85 84 78 75 81 81 76 76 67 78 80 80 78 64 71 77 76 74 76 77 79 76
60 60 60 59 59 59 57 57 60 62 64 65 53 53 61 79 74 79 81 80 79 77 80 95 80 73 75 70 65 68 62 66 72 80 79 75 65 71 77 76 73 73 76 78 75
60 60 60 59 58 57 57 58 59 61 64 67 68 57 67 73 78 80 77 83 79 77 80 77 70 66 64 63 56 60 63 69 68 77 77 72 70 73 75 75 73 72 71 68 70
59 59 59 59 58 56 55 50 59 57 56 62 61 64 72 77 83 78 81 81 76 74 62 67 65 61 67 68 72 68 67 66 73 81 75 71 70 70 72 73 73 70 66 66 68
59 59 59 58 57 57 54 49 57 59 55 66 68 68 74 75 72 76 81 74 70 63 63 62 60 69 74 72 71 70 68 67 74 81 76 71 67 71 72 72 73 72 68 67 68
59 58 58 57 57 52 50 55 65 61 52 63 67 67 69 73 70 71 79 74 66 63 62 58 63 75 73 71 69 66 64 68 69 75 74 70 64 64 71 73 75 74 73 69 71
59 59 58 57 53 49 53 58 61 61 48 58 60 69 73 75 69 80 80 77 67 66 64 62 70 72 67 69 68 60 75 75 75 68 60 66 54 59 65 68 71 71 69 69 70
59 59 58 55 51 47 60 56 60 61 41 66 64 79 69 71 69 75 80 75 68 66 64 63 66 66 66 71 73 68 75 73 73 63 59 61 56 60 61 63 68 69 70 70 71
58 57 56 52 52 51 55 56 61 50 44 62 67 63 62 64 69 71 75 77 75 67 62 67 70 71 72 76 75 78 71 67 61 57 52 52 54 56 58 64 68 70 72 74 71
56 54 54 58 49 54 56 59 48 41 62 63 59 60 58 58 65 65 67 63 61 54 52 63 66 70 75 67 69 67 58 50 50 50 50 51 53 59 68 71 73 72 74 75 72
54 53 54 55 52 53 57 55 39 55 54 63 64 60 60 63 61 64 61 59 59 58 51 54 54 66 72 71 67 62 59 52 46 45 50 53 52 64 71 74 76 76 77 78 75
52 47 48 50 55 51 57 43 46 53 64 62 62 56 55 59 61 61 60 59 64 63 55 50 55 69 73 73 74 62 57 61 50 45 48 51 58 68 71 70 74 74 74 75 75
48 48 53 54 55 55 52 44 50 61 67 62 53 58 54 56 58 57 57 65 65 68 65 58 53 61 71 72 69 69 70 58 52 45 42 49 52 56 64 69 73 73 71 75 75
50 55 59 56 55 55 45 45 56 67 68 60 57 56 57 58 60 55 60 67 71 68 67 60 56 59 65 60 63 63 58 55 55 51 47 44 51 62 66 70 71 72 75 75 74
47 52 59 58 52 44 44 52 59 64 67 64 62 60 59 62 60 59 62 68 74 68 62 61 55 52 60 67 67 67 64 58 54 50 48 50 53 69 70 72 72 72 74 73 74
46 49 61 61 46 45 50 57 63 61 62 62 61 64 62 62 56 64 66 77 76 70 64 63 51 48 55 60 61 59 61 55 54 51 48 50 55 67 65 68 70 70 71 71 72
47 50 53 55 50 49 48 53 56 66 65 66 63 65 59 60 60 62 63 73 75 75 71 70 51 54 52 58 60 57 62 61 56 51 49 53 56 64 67 67 69 72 72 70 72
47 51 51 48 50 52 51 54 56 57 65 64 62 68 62 53 58 58 63 64 70 69 66 68 57 54 59 62 64 64 64 64 59 59 58 66 61 66 68 70 70 71 71 72 71
49 49 49 48 51 50 48 51 57 60 61 61 62 66 65 59 62 58 61 57 57 64 58 57 57 56 56 63 65 63 65 66 65 62 61 59 61 68 70 66 68 72 72 72 72
48 51 51 48 49 49 50 55 59 61 63 66 66 63 64 68 69 67 64 62 59 57 57 57 54 52 51 58 61 56 61 63 62 62 62 57 65 66 68 70 70 70 71 73 75
MSLP
1016.17 1015.85 1015.57 1015.17 1014.77 1014.50 1014.16 1013.90 1013.60 1013.23 1012.76 1012.35 1011.95 1011.42 1010.78 1010.12 1009.17 1008.91 1007.67 1004.64 1004.47 1004.48 1004.39 1004.18 1003.94 1004.14 1004.46 1005.26 1005.77 1006.33 1007.12 1007.04 1006.35 1005.29 1004.43 1003.90 1004.42 1005.36 1005.33 1005.82 1006.13 1006.68 1007.28 1007.83 1009.61
1016.26 1015.96 1015.62 1015.28 1014.87 1014.43 1014.13 1013.85 1013.57 1013.23 1012.80 1012.23 1011.73 1011.26 1010.74 1010.31 1009.55 1007.62 1004.25 1003.69 1004.13 1004.59 1004.53 1004.39 1004.30 1004.16 1004.56 1005.27 1005.76 1005.98 1006.55 1005.77 1004.86 1004.30 1003.97 1003.98 1004.05 1004.77 1005.41 1005.97 1006.56 1006.78 1007.42 1008.62 1009.71
1016.11 1015.90 1015.58 1015.25 1014.92 1014.55 1014.06 1013.73 1013.51 1013.12 1012.66 1012.25 1011.74 1011.13 1010.64 1010.32 1009.12 1005.08 1003.19 1003.31 1003.83 1004.59 1004.51 1004.44 1004.25 1004.36 1004.60 1005.09 1005.50 1005.61 1005.29 1004.21 1003.58 1003.34 1003.69 1004.12 1004.12 1004.19 1005.02 1005.66 1005.99 1006.80 1007.64 1008.77 1009.70
1016.02 1015.62 1015.34 1015.02 1014.64 1014.21 1013.79 1013.42 1013.04 1012.76 1012.38 1011.97 1011.50 1010.92 1010.37 1010.25 1007.71 1003.75 1003.20 1003.36 1003.68 1004.41 1004.68 1004.45 1004.46 1004.31 1004.41 1004.71 1004.55 1004.62 1003.62 1003.40 1002.81 1002.48 1003.16 1003.62 1003.78 1004.30 1004.46 1004.61 1005.06 1006.57 1007.37 1008.40 1009.54
1015.98 1015.61 1015.17 1014.77 1014.40 1013.98 1013.45 1012.99 1012.63 1012.33 1012.06 1011.78 1011.32 1010.87 1010.32 1009.40 1006.29 1003.44 1003.42 1003.77 1004.04 1004.26 1004.42 1004.52 1004.44 1004.30 1004.36 1004.28 1003.93 1003.92 1003.02 1002.55 1002.39 1002.38 1002.63 1003.29 1003.82 1004.41 1004.80 1004.95 1005.63 1006.68 1007.74 1008.48 1009.29
1015.93 1015.52 1015.17 1014.71 1014.21 1013.76 1013.39 1012.94 1012.45 1012.01 1011.67 1011.38 1011.13 1010.89 1010.57 1008.47 1004.27 1003.70 1003.81 1003.99 1004.08 1004.01 1004.09 1004.26 1004.08 1003.99 1004.27 1004.06 1003.72 1002.99 1002.77 1002.09 1002.33 1002.47 1002.78 1003.41 1004.32 1004.50 1005.36 1005.76 1006.18 1006.77 1007.57 1008.18 1008.63
1015.93 1015.46 1015.07 1014.65 1014.14 1013.58 1013.06 1012.63 1012.19 1011.71 1011.33 1011.06 1010.89 1010.72 1009.92 1006.02 1004.08 1003.96 1004.12 1003.88 1003.90 1003.99 1003.96 1003.91 1003.77 1003.99 1003.82 1003.49 1002.97 1002.45 1002.45 1002.54 1002.82 1002.66 1003.07 1003.54 1004.67 1004.63 1005.27 1005.96 1006.39 1007.04 1007.38 1007.82 1008.38
1015.88 1015.45 1014.98 1014.57 1014.04 1013.47 1012.82 1012.08 1011.52 1011.14 1010.87 1010.79 1010.71 1010.56 1008.38 1004.52 1004.24 1003.90 1003.71 1003.39 1003.34 1003.71 1003.74 1003.37 1003.54 1003.93 1004.02 1003.58 1003.16 1002.92 1002.79 1003.01 1002.87 1002.90 1003.34 1003.75 1004.68 1004.69 1005.70 1005.95 1006.53 1006.92 1007.47 1007.52 1007.61
1015.83 1015.32 1014.83 1014.33 1013.87 1013.27 1012.46 1011.55 1010.72 1010.24 1010.33 1010.53 1010.75 1010.19 1006.89 1004.15 1004.16 1003.03 1003.14 1003.36 1002.95 1003.11 1003.12 1002.96 1003.37 1003.96 1004.10 1004.39 1004.25 1004.01 1003.78 1003.35 1002.91 1002.63 1003.03 1003.90 1004.53 1004.96 1005.59 1006.08 1006.32 1007.02 1007.35 1007.58 1008.01
1015.71 1015.20 1014.68 1014.18 1013.64 1012.99 1012.13 1010.82 1010.17 1010.18 1010.18 1010.29 1010.05 1009.81 1006.15 1004.28 1003.30 1002.73 1002.86 1002.94 1003.06 1003.12 1003.01 1003.12 1003.88 1004.42 1004.95 1005.23 1005.41 1005.17 1004.82 1003.92 1003.53 1002.84 1002.95 1003.54 1004.27 1004.88 1005.72 1005.87 1006.16 1007.23 1007.45 1007.81 1007.67
1015.61 1015.07 1014.51 1014.01 1013.49 1013.06 1012.17 1011.05 1010.52 1010.33 1009.72 1008.54 1008.04 1007.19 1005.39 1004.24 1003.11 1002.60 1002.55 1002.91 1003.22 1003.58 1004.05 1004.08 1004.69 1004.79 1004.82 1005.30 1005.11 1005.13 1004.99 1004.43 1003.05 1002.63 1002.72 1003.37 1004.29 1005.16 1005.42 1005.71 1006.53 1007.12 1007.82 1007.88 1007.47
1015.42 1014.92 1014.32 1013.73 1013.19 1012.74 1012.76 1012.08 1010.75 1010.98 1009.46 1007.37 1006.69 1006.21 1005.04 1004.89 1004.44 1002.83 1002.61 1003.28 1003.65 1004.21 1004.50 1004.93 1004.57 1004.26 1004.65 1004.74 1004.90 1004.92 1004.67 1004.04 1003.17 1002.21 1002.64 1003.52 1004.63 1005.11 1005.44 1005.59 1006.04 1006.50 1007.46 1007.71 1007.54
1015.23 1014.69 1014.05 1013.46 1012.76 1012.53 1012.45 1011.31 1010.20 1010.15 1009.66 1006.53 1005.32 1004.61 1004.05 1004.23 1003.80 1002.76 1002.61 1003.06 1003.64 1004.46 1004.70 1004.88 1004.31 1004.24 1004.46 1004.47 1004.68 1004.47 1004.43 1003.79 1003.56 1003.16 1003.01 1003.93 1005.13 1005.47 1005.44 1005.49 1005.67 1006.21 1006.74 1007.18 1006.63
1015.08 1014.59 1014.10 1013.24 1012.67 1013.00 1011.90 1010.49 1010.13 1009.95 1009.31 1006.04 1004.48 1002.79 1002.93 1003.00 1002.78 1001.81 1001.84 1002.54 1003.42 1003.98 1004.91 1004.75 1004.10 1004.13 1004.28 1004.24 1004.40 1004.25 1003.34 1003.95 1003.35 1003.59 1004.47 1005.08 1006.13 1005.95 1005.34 1004.96 1005.06 1005.64 1005.82 1006.13 1005.78
1014.78 1014.46 1014.17 1014.16 1013.88 1013.09 1010.98 1010.36 1009.76 1009.57 1008.44 1004.77 1003.34 1001.87 1001.96 1002.16 1001.84 1001.35 1001.30 1002.01 1002.93 1003.64 1004.45 1004.10 1003.89 1003.76 1003.86 1003.33 1003.85 1003.50 1003.21 1003.93 1003.99 1004.73 1005.49 1006.22 1006.50 1005.51 1005.64 1005.43 1005.12 1005.20 1005.15 1005.05 1004.92
1014.36 1014.15 1013.94 1013.70 1013.74 1011.54 1010.70 1010.24 1009.72 1009.85 1007.36 1004.29 1002.83 1002.45 1002.58 1001.96 1001.71 1001.51 1001.47 1001.72 1002.51 1003.52 1003.98 1003.90 1003.41 1003.27 1002.82 1002.46 1003.23 1003.07 1003.89 1004.48 1005.37 1006.11 1007.00 1007.21 1007.24 1005.97 1005.52 1004.57 1004.40 1004.35 1004.22 1004.32 1004.34
1013.74 1013.61 1013.69 1013.29 1012.12 1011.01 1010.77 1010.37 1010.71 1009.40 1006.50 1004.59 1003.38 1002.74 1002.70 1002.68 1002.17 1001.95 1002.17 1002.63 1003.10 1004.02 1004.09 1004.03 1003.43 1002.72 1002.49 1002.78 1002.99 1003.63 1004.82 1005.80 1006.98 1007.41 1008.25 1007.83 1007.62 1005.13 1003.80 1003.52 1003.28 1003.37 1003.03 1003.41 1003.64
1012.90 1012.61 1012.20 1012.13 1011.22 1011.49 1010.84 1010.90 1010.74 1008.32 1006.65 1004.59 1003.72 1002.90 1002.60 1002.49 1002.62 1002.59 1002.91 1003.40 1003.76 1004.08 1004.88 1004.76 1003.79 1002.53 1002.09 1002.19 1002.53 1003.38 1004.46 1005.81 1007.08 1008.26 1008.50 1008.04 1006.91 1004.12 1002.75 1002.57 1002.61 1002.29 1002.17 1002.47 1003.05
1012.02 1011.99 1011.92 1010.57 1011.15 1011.58 1011.28 1011.41 1009.98 1008.14 1006.48 1005.48 1003.88 1003.40 1003.10 1002.62 1002.72 1003.02 1003.26 1003.46 1003.54 1003.89 1004.42 1004.65 1003.72 1002.20 1001.52 1001.30 1001.88 1002.93 1004.14 1004.50 1006.77 1008.60 1008.51 1007.81 1006.29 1003.80 1002.48 1002.24 1002.00 1002.20 1001.97 1002.11 1002.26
1012.01 1011.78 1010.89 1010.05 1010.73 1011.17 1011.36 1011.03 1009.54 1007.77 1006.50 1005.71 1005.37 1004.70 1004.38 1003.33 1003.15 1003.09 1003.10 1002.35 1002.82 1002.85 1003.17 1004.06 1003.89 1002.29 1001.50 1001.19 1001.69 1002.17 1002.88 1004.65 1006.57 1008.37 1008.91 1007.94 1006.65 1004.39 1002.85 1002.17 1001.50 1001.45 1001.87 1001.81 1002.01
1011.97 1011.41 1010.33 1010.20 1010.71 1011.06 1011.57 1010.73 1008.91 1007.30 1006.55 1006.08 1005.57 1005.43 1004.33 1003.69 1002.98 1002.80 1002.49 1001.65 1001.42 1002.20 1002.80 1003.73 1004.07 1003.21 1002.23 1001.78 1001.80 1002.37 1003.08 1004.66 1006.00 1007.33 1008.12 1007.79 1006.34 1003.31 1002.65 1002.09 1001.77 1001.49 1001.19 1001.24 1001.61
1012.39 1011.58 1010.38 1010.78 1011.09 1011.68 1011.33 1009.92 1008.32 1007.01 1006.18 1006.04 1005.28 1004.80 1004.35 1003.53 1002.53 1002.01 1001.76 1000.76 1000.03 1001.08 1002.81 1003.25 1003.77 1004.07 1003.27 1001.89 1001.80 1001.99 1002.66 1003.64 1005.45 1007.29 1007.28 1006.62 1004.56 1002.56 1002.17 1001.84 1001.64 1001.24 1000.99 1000.93 1001.44
1013.27 1012.00 1010.67 1010.54 1011.18 1011.36 1010.50 1009.39 1008.06 1006.70 1005.78 1005.30 1004.81 1004.36 1003.96 1003.51 1002.62 1001.54 1000.57 999.43 999.28 1000.47 1001.13 1002.39 1003.69 1004.32 1003.61 1002.40 1001.80 1001.72 1001.94 1002.79 1003.87 1005.12 1006.15 1006.06 1003.65 1002.33 1002.35 1001.98 1001.63 1001.87 1001.79 1001.24 1001.56
1013.59 1012.58 1011.54 1010.98 1010.80 1010.65 1010.24 1008.92 1007.57 1006.17 1005.40 1004.85 1004.46 1003.95 1003.80 1003.07 1002.05 1001.44 1000.72 999.17 998.50 999.31 1000.14 1001.12 1002.78 1003.53 1003.37 1002.53 1001.77 1001.51 1001.65 1002.18 1003.38 1004.78 1004.76 1004.28 1003.12 1002.14 1001.82 1001.64 1001.33 1001.36 1001.32 1001.69 1001.65
1013.47 1012.72 1011.95 1011.45 1010.97 1010.56 1010.18 1009.14 1007.78 1006.51 1005.32 1004.49 1004.27 1003.67 1003.60 1003.34 1002.25 1001.42 1000.99 1000.20 998.93 999.41 1000.22 1000.91 1002.47 1002.98 1002.42 1002.01 1001.44 1000.95 1000.96 1001.55 1002.31 1002.67 1003.62 1002.61 1002.58 1001.37 1000.82 1000.43 1000.64 1001.14 1001.49 1001.73 1001.93
1013.45 1012.97 1012.28 1011.59 1010.87 1010.32 1009.82 1008.78 1007.52 1006.45 1005.82 1004.53 1004.01 1003.35 1002.56 1003.06 1001.66 1001.79 1001.37 1000.76 1000.57 1000.21 1000.90 1001.32 1002.33 1002.70 1002.71 1001.96 1001.30 1000.92 1000.62 1000.69 1001.07 1001.70 1002.11 1002.18 1001.58 1000.19 999.69 1000.26 1000.47 1000.85 1001.14 1001.50 1001.61
1013.49 1012.90 1012.63 1011.59 1011.00 1010.38 1009.37 1008.27 1007.30 1006.56 1005.23 1004.52 1003.69 1003.13 1002.64 1001.78 1001.07 1001.32 1001.24 1001.10 1001.02 1001.10 1001.29 1001.87 1002.50 1003.39 1003.36 1002.19 1001.44 1001.19 1000.51 1000.32 1001.15 1001.65 1001.91 1001.91 1000.77 1000.32 999.86 999.90 999.81 1000.15 1000.55 1000.56 1000.72
Wind_Speed
14 14 14 16 17 17 17 16 16 16 17 18 17 18 19 19 18 4 7 11 6 3 1 6 3 4 4 4 3 3 3 3 4 1 3 10 7 6 5 12 3 6 8 13 19
15 15 15 16 16 17 17 16 16 16 17 17 18 17 18 18 4 7 12 12 13 5 2 4 6 6 3 3 1 4 2 7 6 2 5 5 14 9 5 8 3 6 15 21 20
16 16 16 16 16 16 17 17 16 17 17 16 17 17 16 12 5 8 1 15 7 9 2 2 4 1 1 4 3 4 5 6 5 6 4 9 8 4 13 5 6 16 22 22 20
17 18 18 17 18 18 18 18 18 17 17 16 16 16 17 1 4 3 5 6 9 9 4 2 1 3 3 2 5 4 8 7 2 3 9 9 7 6 8 4 12 18 23 21 20
18 18 19 19 19 19 20 20 20 19 17 15 14 13 5 3 11 6 3 6 6 6 6 5 2 2 1 3 3 5 8 4 2 5 8 7 4 4 2 9 15 16 19 19 18
18 19 19 19 20 20 20 20 20 19 18 14 11 10 2 3 5 5 1 2 2 4 3 4 5 6 3 6 2 6 12 5 5 8 8 9 4 2 3 9 15 17 18 18 18
18 19 19 19 21 22 22 21 21 20 17 11 7 3 1 17 3 6 5 4 4 3 2 4 3 1 5 6 3 9 6 5 4 6 4 12 2 6 10 11 13 14 16 15 16
18 19 20 21 22 22 22 23 24 19 13 6 2 1 9 5 1 9 1 7 6 7 5 7 6 4 3 4 7 5 5 4 6 5 4 2 7 3 9 14 12 11 11 15 13
16 19 20 21 20 20 22 26 24 10 5 5 2 2 12 7 3 8 6 5 4 2 4 4 4 2 4 3 5 7 2 2 4 10 7 6 3 5 7 10 12 11 10 12 6
17 18 21 21 20 20 23 24 12 4 4 5 3 3 5 2 5 3 6 4 3 4 6 3 5 3 4 5 3 3 4 7 5 4 7 8 3 9 8 13 13 9 7 6 7
17 17 19 22 20 18 16 7 4 1 1 9 6 5 6 7 6 3 3 5 3 6 2 3 4 6 9 6 5 2 3 7 13 10 6 9 4 10 12 13 10 8 9 8 11
17 19 19 22 21 22 2 1 1 2 9 11 14 9 8 5 6 5 5 6 5 5 2 4 8 9 7 3 3 3 6 10 12 12 6 4 2 4 12 8 10 12 12 12 7
17 17 21 23 27 2 1 6 5 7 2 9 7 7 6 9 8 9 10 7 4 6 6 8 4 7 2 3 4 3 5 8 9 3 5 6 6 2 3 4 6 6 8 13 17
18 18 19 25 3 4 4 2 8 4 5 10 4 10 8 8 5 8 8 8 2 11 7 6 6 5 1 6 6 6 4 10 7 4 3 4 4 5 7 10 6 6 7 11 16
18 18 18 7 9 4 3 7 7 2 3 3 4 2 2 11 3 6 6 5 8 4 7 9 6 4 5 14 6 13 3 5 4 5 5 4 5 8 2 7 10 8 11 14 15
17 15 13 3 3 8 10 10 3 7 7 8 1 0 2 1 2 1 4 4 5 4 2 8 1 6 10 7 9 7 2 7 6 4 4 1 4 7 5 8 6 7 12 15 13
18 13 5 4 6 3 8 3 7 3 6 6 3 1 2 1 3 2 5 5 7 5 5 5 6 4 5 5 2 4 7 3 4 5 6 2 2 12 5 7 7 10 15 14 11
19 17 5 9 4 5 2 7 2 4 7 6 5 3 6 7 2 4 4 3 2 5 4 6 7 8 4 10 9 7 9 8 6 5 5 2 5 9 6 5 6 10 14 12 11
17 1 2 5 11 2 6 4 8 5 4 8 11 4 3 2 4 4 7 8 8 9 6 6 7 5 5 6 9 4 4 5 9 5 4 3 8 12 3 1 7 9 10 13 13
2 2 3 5 11 3 6 5 5 5 6 4 3 7 7 4 5 7 7 6 6 10 7 5 2 2 3 4 3 8 5 4 4 5 3 5 5 8 4 7 8 3 10 12 10
2 3 2 3 3 6 4 7 5 6 5 4 4 6 7 5 8 6 7 7 9 9 9 7 4 7 5 1 5 2 0 6 6 5 8 3 8 8 8 7 8 8 9 10 12
3 3 1 2 4 2 2 6 4 7 6 7 5 8 6 5 6 8 10 9 10 12 11 8 6 6 12 7 2 4 8 6 7 6 2 5 9 5 10 8 7 11 10 7 9
2 2 1 2 1 2 5 5 7 5 6 4 4 4 4 7 3 5 5 12 12 10 13 9 1 2 12 9 3 3 6 5 5 4 7 7 9 2 5 8 7 7 8 6 9
1 2 3 1 1 3 2 6 4 4 7 5 6 4 3 5 3 5 5 7 11 15 10 11 5 10 9 9 4 1 2 5 6 4 4 8 5 6 9 10 8 8 6 7 10
1 1 3 3 4 4 3 4 4 4 3 2 2 1 2 5 4 3 3 7 2 4 9 10 9 7 8 5 4 3 2 6 5 7 8 12 10 9 13 14 12 7 5 8 7
1 1 3 3 2 3 6 5 3 3 3 4 4 8 6 6 1 4 2 2 1 5 5 2 5 8 6 6 7 4 3 5 5 1 7 4 9 8 8 4 8 9 8 9 12
3 3 3 3 2 2 5 4 4 4 6 8 7 7 6 6 3 9 7 5 4 3 1 5 8 5 7 5 6 3 3 2 6 2 3 4 10 2 6 9 11 12 11 13 15
Wind_Direction
348 347 344 341 340 340 340 340 339 337 334 331 328 325 325 326 321 158 236 225 176 113 98 301 4 340 89 88 97 145 76 144 243 278 62 130 117 153 98 144 209 187 150 149 141
349 345 343 341 340 338 337 336 334 334 332 330 327 324 324 331 308 266 241 240 202 107 31 4 320 359 59 92 103 92 115 219 202 206 103 115 132 145 122 172 56 93 111 131 141
346 344 341 340 338 336 333 333 332 330 329 328 324 322 322 326 327 252 300 231 197 149 171 252 283 359 61 128 181 152 214 188 224 200 112 142 147 136 140 208 185 154 144 149 152
343 341 341 339 337 336 332 331 331 330 328 327 325 324 319 263 240 271 16 34 146 140 157 224 336 345 10 194 184 251 233 235 128 265 152 181 146 159 192 219 139 157 155 151 162
341 339 339 338 337 335 332 331 328 326 325 324 324 328 342 7 255 281 11 81 125 143 178 169 148 139 296 295 291 204 274 250 26 110 118 121 131 138 60 117 127 147 154 162 167
340 338 336 335 334 332 329 326 322 319 318 318 322 324 286 264 257 322 24 47 144 169 177 152 181 193 244 240 192 225 237 218 164 161 139 128 153 114 138 128 134 151 163 173 172
338 336 334 332 333 330 327 320 316 312 309 304 308 298 331 236 148 339 304 217 158 185 180 204 185 89 324 317 259 278 168 109 177 163 141 117 294 242 131 146 147 160 178 178 182
336 334 332 331 330 326 321 315 311 305 293 273 273 209 248 246 260 299 107 286 218 218 206 232 190 189 179 288 325 337 74 133 185 153 153 98 240 257 154 149 171 177 186 195 191
333 333 331 329 327 324 319 313 310 294 222 163 128 173 265 302 262 248 170 233 305 239 221 244 145 168 39 58 350 5 211 233 300 195 148 202 231 192 187 165 185 178 193 205 201
333 331 329 327 326 325 321 308 285 299 160 184 245 346 279 305 279 246 186 161 266 349 1 133 63 95 51 72 237 17 1 318 276 253 190 200 228 182 186 194 189 175 143 126 172
331 328 328 325 323 324 338 353 16 6 70 205 194 261 285 310 320 286 145 101 78 58 203 5 111 209 224 153 197 303 260 276 283 286 151 208 177 192 201 208 188 191 153 172 187
329 329 325 324 320 318 289 33 351 124 304 236 247 255 265 71 298 302 125 142 129 198 141 16 219 221 127 183 234 227 288 288 291 280 152 126 102 170 193 217 212 183 176 194 222
327 327 328 326 318 42 178 237 315 331 219 286 206 212 198 151 206 258 146 145 148 171 196 168 254 137 163 281 300 278 228 282 250 243 50 90 344 329 200 244 209 200 184 201 220
325 327 332 332 47 334 260 271 303 215 32 274 245 263 164 154 261 211 182 142 190 192 146 220 235 190 146 255 134 289 212 261 253 107 182 44 247 282 237 230 222 194 201 214 229
323 324 323 356 298 285 316 319 304 61 344 266 233 311 204 153 183 223 177 56 157 186 120 233 158 158 193 237 140 242 78 234 234 79 97 355 82 267 100 259 248 227 230 231 229
308 304 314 322 229 246 306 311 62 45 258 322 153 54 133 261 183 71 126 76 162 165 175 229 212 154 207 262 193 271 263 36 28 94 40 4 108 281 200 212 249 222 226 235 233
303 296 276 272 231 315 309 42 47 144 334 316 337 46 186 317 229 67 139 147 162 138 248 342 271 247 167 264 15 114 67 322 351 31 212 43 53 239 222 215 205 209 241 230 219
306 302 242 212 241 303 344 52 149 237 255 301 296 239 161 151 234 168 129 222 295 104 127 161 310 175 184 185 202 184 161 157 188 180 245 82 237 259 196 183 218 222 224 230 227
314 75 218 241 211 341 75 89 215 225 312 336 327 49 322 252 144 155 194 198 207 173 163 140 267 275 186 166 142 215 192 189 99 6 72 245 289 303 0 92 223 216 204 221 228
346 332 254 116 156 117 78 232 239 234 340 344 349 21 9 269 174 157 195 206 213 181 148 208 292 266 306 145 142 161 171 78 21 122 228 278 273 237 292 310 303 273 190 220 218
343 43 315 145 174 51 160 230 275 262 338 323 331 262 241 249 198 191 209 262 194 191 164 155 111 285 23 160 181 5 173 57 115 126 158 206 262 215 236 236 249 268 243 199 193
343 61 164 156 60 52 180 207 273 279 293 244 234 207 243 295 267 194 207 221 184 149 162 195 153 221 230 258 290 177 217 157 136 219 184 162 265 219 223 234 214 257 243 216 149
36 273 57 55 175 246 282 263 237 257 258 229 270 205 249 279 308 223 219 236 217 152 169 175 209 29 335 348 32 198 197 128 113 90 193 153 258 241 277 274 260 280 275 159 143
74 87 337 71 182 173 286 275 285 277 278 205 237 217 319 280 260 296 313 281 184 191 150 124 134 158 193 209 177 179 146 130 114 117 177 219 255 263 241 232 256 228 203 186 170
154 223 193 245 278 195 160 296 282 291 281 261 264 124 318 281 299 356 268 302 29 32 147 141 184 169 225 201 217 233 187 152 156 207 168 260 200 236 224 217 214 216 200 180 164
55 54 357 275 285 215 171 240 246 291 268 278 233 330 348 229 246 281 282 323 239 333 137 299 207 164 224 182 178 192 227 215 212 190 263 127 247 222 265 60 142 196 183 200 199
322 324 114 262 266 123 223 243 272 312 262 239 279 323 251 197 178 240 216 285 289 294 126 145 134 122 223 195 146 0 252 195 78 36 273 192 241 310 228 206 224 191 196 205 204